Total_Precipitation_Accumulation
0.09 0.17 0.25 0.26 0.24 0.21 0.17 0.16 0.29 0.34 0.48 0.57 0.73 0.72 0.76 0.74 0.68 0.65 0.75 0.71 0.66 0.66 0.75 0.76 0.82 0.83 0.83 0.85 0.88 1.09 1.64 1.97 1.96 1.82 1.81 1.77 1.76 1.89 1.97 2.03 2.05 2.29 2.44 2.52
0.12 0.15 0.18 0.18 0.21 0.20 0.15 0.14 0.13 0.21 0.39 0.45 0.71 0.85 0.83 0.84 0.81 0.75 0.75 0.70 0.67 0.60 0.70 0.82 0.90 0.93 0.94 1.00 1.05 1.19 1.57 1.90 1.89 1.77 1.71 1.63 1.70 1.84 1.97 2.05 2.23 2.41 2.41 2.40
0.17 0.20 0.19 0.27 0.23 0.19 0.18 0.18 0.18 0.29 0.44 0.46 0.55 0.71 0.81 0.84 0.81 0.74 0.76 0.70 0.69 0.73 0.83 1.02 0.97 1.01 1.08 1.02 1.08 1.28 1.65 1.91 1.98 1.89 1.81 1.77 1.69 1.86 2.05 2.27 2.46 2.55 2.49 2.43
0.22 0.27 0.39 0.31 0.24 0.24 0.27 0.32 0.33 0.35 0.40 0.45 0.58 0.66 0.80 0.97 0.84 0.71 0.74 0.77 0.85 0.85 0.92 1.01 0.99 1.05 1.12 1.14 1.20 1.37 1.67 1.93 2.06 2.00 1.96 2.03 2.03 2.10 2.29 2.53 2.71 2.73 2.68 2.57
0.32 0.37 0.44 0.41 0.33 0.36 0.41 0.47 0.49 0.52 0.46 0.53 0.60 0.73 0.89 0.84 0.82 0.88 0.89 0.90 0.96 1.06 1.11 1.19 1.19 1.15 1.22 1.38 1.45 1.51 1.61 1.89 2.09 2.15 2.18 2.15 2.20 2.46 2.68 2.84 2.87 2.82 2.89 2.80
0.46 0.55 0.63 0.62 0.46 0.39 0.48 0.83 0.65 0.66 0.65 0.60 0.64 0.93 1.08 0.89 0.81 0.82 0.95 1.06 1.07 1.14 1.20 1.24 1.28 1.35 1.43 1.56 1.73 1.86 1.94 2.10 2.38 2.58 2.71 2.74 2.80 2.88 2.94 3.05 3.00 3.01 2.92 2.86
0.68 0.81 0.76 0.60 0.52 0.47 0.90 1.24 0.91 0.88 0.85 0.76 0.89 1.01 1.02 0.89 0.85 0.83 0.86 1.00 1.09 1.14 1.24 1.32 1.34 1.51 1.80 1.96 2.05 2.22 2.36 2.44 2.70 3.05 3.23 3.19 3.22 3.12 3.04 3.03 3.03 3.03 2.91 2.81
0.91 1.17 1.25 0.69 0.63 0.99 1.25 1.05 1.06 1.09 1.06 0.99 0.98 1.04 1.05 1.03 0.90 0.86 0.88 0.95 1.07 1.15 1.24 1.43 1.70 1.90 2.20 2.38 2.43 2.50 2.66 2.96 3.20 3.38 3.21 3.11 3.30 3.20 3.21 3.27 3.23 3.11 3.02 2.92
1.19 1.42 1.21 0.85 0.97 1.15 1.14 1.12 1.16 1.13 1.09 0.99 0.96 1.12 1.06 1.01 1.02 0.93 0.92 0.96 1.05 1.15 1.34 1.56 1.87 2.27 2.51 2.58 2.78 2.79 2.84 3.06 3.14 3.20 3.31 3.45 3.53 3.41 3.35 3.34 3.26 3.07 2.98 2.82
1.49 1.55 1.31 1.15 1.15 1.10 1.13 1.15 1.11 1.05 1.01 1.02 1.00 1.02 1.03 1.01 1.03 0.99 0.98 1.06 1.11 1.23 1.44 1.75 2.05 2.40 2.57 2.62 2.65 2.68 2.71 2.75 2.87 3.05 3.18 3.30 3.54 3.54 3.41 3.23 3.13 3.03 2.99 2.86
2.00 2.07 1.92 1.76 1.51 1.33 1.28 1.21 1.25 1.21 1.13 1.11 1.07 1.04 1.02 1.05 1.05 1.05 1.05 1.16 1.26 1.37 1.48 1.65 1.92 2.23 2.38 2.53 2.61 2.77 2.81 2.73 2.65 2.68 2.81 2.96 3.09 3.18 3.11 3.08 2.97 2.84 2.66 2.60
2.31 2.05 2.02 2.16 1.88 1.63 1.57 1.56 1.56 1.53 1.47 1.35 1.27 1.22 1.15 1.12 1.05 1.03 1.03 1.11 1.24 1.37 1.54 1.72 1.92 2.13 2.26 2.45 2.59 2.74 2.76 2.65 2.59 2.54 2.61 2.66 2.67 2.64 2.52 2.43 2.31 2.14 2.06 2.00
1.96 1.86 1.83 1.99 1.92 1.83 1.91 2.05 2.06 1.92 1.68 1.40 1.28 1.26 1.21 1.08 1.01 1.03 1.09 1.21 1.38 1.46 1.59 1.78 1.88 2.01 2.18 2.40 2.58 2.71 2.67 2.51 2.36 2.25 2.27 2.26 2.31 2.47 2.54 2.32 2.13 1.92 1.81 1.69
1.87 2.08 2.28 2.28 2.23 2.07 2.07 2.18 2.17 1.93 1.79 1.61 1.42 1.34 1.26 1.16 1.07 1.06 1.11 1.22 1.35 1.43 1.45 1.56 1.72 1.83 2.01 2.23 2.39 2.50 2.49 2.49 2.37 2.24 2.22 2.21 2.29 2.39 2.53 2.52 2.24 1.87 1.78 1.71
2.09 2.05 2.24 2.34 2.22 2.20 2.16 2.15 2.21 2.08 1.85 1.83 1.73 1.54 1.45 1.43 1.41 1.36 1.32 1.34 1.46 1.53 1.56 1.59 1.71 1.81 1.98 2.28 2.35 2.33 2.29 2.25 2.22 2.28 2.25 2.22 2.35 2.39 2.38 2.43 2.30 2.09 1.84 1.65
2.45 2.22 2.30 2.36 2.23 2.11 2.05 2.01 2.01 1.96 1.82 1.75 1.74 1.70 1.54 1.50 1.53 1.53 1.57 1.63 1.81 1.84 1.82 1.84 1.86 1.91 2.16 2.45 2.46 2.35 2.23 2.16 2.05 2.03 2.01 1.98 2.04 2.14 2.18 2.30 2.29 2.20 2.03 1.74
2.51 2.54 2.56 2.32 2.14 2.04 1.92 1.80 1.75 1.73 1.79 1.81 1.67 1.62 1.53 1.41 1.42 1.53 1.65 1.73 1.84 1.82 1.77 1.83 1.86 1.94 2.19 2.42 2.47 2.38 2.17 2.01 1.77 1.61 1.65 1.76 1.91 2.03 2.06 2.12 2.23 2.18 1.96 1.72
2.22 2.24 2.28 2.13 1.98 1.90 1.83 1.69 1.58 1.52 1.60 1.63 1.50 1.46 1.45 1.49 1.59 1.68 1.82 1.86 1.86 1.80 1.69 1.64 1.66 1.81 2.02 2.10 2.11 2.13 2.05 1.91 1.69 1.54 1.57 1.66 1.78 1.97 2.04 2.00 1.98 1.97 1.86 1.67
2.07 2.00 2.01 1.88 1.76 1.70 1.65 1.56 1.56 1.50 1.48 1.58 1.55 1.48 1.52 1.60 1.76 1.86 1.91 2.07 2.12 1.95 1.73 1.58 1.61 1.62 1.77 1.82 1.87 1.97 1.94 1.87 1.74 1.66 1.71 1.76 1.80 1.85 1.86 1.83 1.79 1.72 1.66 1.57
2.16 2.03 2.03 1.90 1.72 1.67 1.61 1.53 1.45 1.42 1.49 1.55 1.60 1.64 1.73 1.78 1.94 2.10 2.18 2.23 2.23 2.07 1.76 1.60 1.49 1.51 1.56 1.61 1.68 1.65 1.71 1.74 1.69 1.64 1.67 1.72 1.70 1.73 1.68 1.67 1.63 1.58 1.52 1.51
2.16 2.15 2.10 2.01 1.87 1.70 1.61 1.57 1.53 1.48 1.47 1.55 1.67 1.75 1.87 1.97 2.08 2.26 2.48 2.43 2.19 2.02 1.78 1.60 1.42 1.38 1.38 1.47 1.56 1.54 1.59 1.66 1.68 1.69 1.69 1.70 1.72 1.75 1.68 1.61 1.59 1.58 1.57 1.55
1.90 1.96 1.97 1.89 1.78 1.69 1.60 1.60 1.59 1.55 1.54 1.61 1.70 1.79 1.91 1.98 2.08 2.21 2.27 2.42 2.26 2.13 1.75 1.48 1.34 1.29 1.29 1.36 1.32 1.43 1.47 1.51 1.56 1.58 1.60 1.61 1.63 1.67 1.67 1.59 1.54 1.47 1.45 1.45
1.73 1.75 1.82 1.82 1.75 1.71 1.62 1.60 1.64 1.64 1.71 1.81 1.85 1.94 2.03 2.00 2.07 2.44 2.53 2.26 2.10 1.98 1.59 1.42 1.41 1.34 1.30 1.23 1.24 1.34 1.38 1.43 1.46 1.37 1.32 1.36 1.43 1.51 1.58 1.55 1.54 1.45 1.40 1.43
1.74 1.66 1.69 1.68 1.62 1.66 1.67 1.61 1.68 1.82 1.87 1.89 1.86 1.90 2.03 2.04 1.98 2.04 2.27 2.31 2.13 1.90 1.57 1.52 1.45 1.33 1.27 1.20 1.34 1.40 1.39 1.40 1.40 1.28 1.18 1.20 1.29 1.41 1.50 1.56 1.58 1.52 1.45 1.43
1.74 1.60 1.50 1.53 1.64 1.75 1.77 1.78 1.87 1.93 1.88 1.85 1.74 1.75 1.93 2.09 2.15 2.05 1.98 1.99 2.06 1.88 1.66 1.61 1.50 1.41 1.21 1.15 1.31 1.44 1.47 1.49 1.42 1.31 1.25 1.31 1.34 1.39 1.42 1.45 1.48 1.44 1.42 1.40
1.78 1.65 1.59 1.51 1.58 1.70 1.78 1.91 2.05 2.04 2.02 2.06 1.87 1.72 1.83 1.90 1.84 1.83 1.82 1.84 1.85 1.86 1.69 1.60 1.47 1.41 1.30 1.26 1.32 1.44 1.57 1.65 1.52 1.38 1.36 1.44 1.42 1.38 1.38 1.36 1.36 1.36 1.32 1.26
1.69 1.65 1.66 1.60 1.64 1.69 1.79 1.93 2.13 2.19 2.14 2.15 2.02 1.86 1.80 1.72 1.61 1.62 1.65 1.76 1.78 1.78 1.75 1.68 1.54 1.42 1.34 1.32 1.34 1.38 1.48 1.55 1.52 1.46 1.42 1.46 1.48 1.48 1.41 1.33 1.29 1.26 1.26 1.20